ANA1649 RJOO-RJOM

Flight info

Callsign ANA1649
Flight time 0h 39m
Altitude 24000
Route TIGER SUMAR AYAME SETOH ONOPA WASYU Y28 BAMBO Y283 ITUKI
Aircraft B738/M-SDE2E3FGHIRWXY/LB1

Departure

Time 2026-04-27 18:04
Airport Osaka Itami International Airport (RJOO)

Arrival

Time 2026-04-27 18:44
Airport Matsuyama Airport (RJOM)
Time Latitude Longitude Altitude Speed Heading
2026-04-27 17:34 34.78695 135.44326 49 ft 0 kts 30°
2026-04-27 17:56 34.78682 135.44317 49 ft 4 kts 33°
2026-04-27 17:56 34.78661 135.44298 49 ft 4 kts 45°
2026-04-27 17:56 34.78645 135.44272 49 ft 4 kts 69°
2026-04-27 17:56 34.78643 135.44245 49 ft 3 kts 129°
2026-04-27 17:57 34.78645 135.44242 49 ft 0 kts 135°
2026-04-27 17:59 34.78592 135.44306 47 ft 16 kts 139°
2026-04-27 18:00 34.78484 135.44336 48 ft 16 kts 178°
2026-04-27 18:00 34.78375 135.44335 50 ft 15 kts 180°
2026-04-27 18:00 34.78270 135.44334 48 ft 15 kts 180°
2026-04-27 18:00 34.78171 135.44347 49 ft 15 kts 152°
2026-04-27 18:01 34.78115 135.44409 49 ft 18 kts 135°
2026-04-27 18:01 34.77996 135.44554 49 ft 18 kts 135°
2026-04-27 18:01 34.77936 135.44626 48 ft 18 kts 135°
2026-04-27 18:01 34.77810 135.44780 49 ft 20 kts 135°
2026-04-27 18:02 34.77710 135.44899 47 ft 20 kts 135°
2026-04-27 18:02 34.77608 135.45023 49 ft 22 kts 135°
2026-04-27 18:02 34.77534 135.45111 49 ft 22 kts 136°
2026-04-27 18:02 34.77429 135.45239 49 ft 21 kts 134°
2026-04-27 18:03 34.77300 135.45296 49 ft 21 kts 197°
2026-04-27 18:03 34.77252 135.45151 48 ft 20 kts 298°
2026-04-27 18:03 34.77391 135.44979 47 ft 53 kts 315°
2026-04-27 18:03 34.77825 135.44450 46 ft 121 kts 315°
2026-04-27 18:04 34.78540 135.43603 167 ft 161 kts 317°
2026-04-27 18:04 34.79329 135.42629 835 ft 164 kts 308°
2026-04-27 18:04 34.79750 135.41244 1211 ft 188 kts 276°
2026-04-27 18:04 34.79674 135.39661 1903 ft 194 kts 256°
2026-04-27 18:05 34.78956 135.38157 2127 ft 220 kts 223°
2026-04-27 18:05 34.77534 135.37265 2345 ft 247 kts 190°
2026-04-27 18:05 34.75799 135.37477 2823 ft 261 kts 165°
2026-04-27 18:05 34.74012 135.38021 3523 ft 266 kts 175°
2026-04-27 18:06 34.72178 135.37758 4284 ft 267 kts 194°
2026-04-27 18:06 34.70358 135.37238 5033 ft 270 kts 194°
2026-04-27 18:06 34.68514 135.36723 5780 ft 273 kts 195°
2026-04-27 18:06 34.66698 135.36046 6520 ft 274 kts 211°
2026-04-27 18:07 34.65314 135.34495 7289 ft 272 kts 239°
2026-04-27 18:07 34.64632 135.32374 8081 ft 272 kts 262°
2026-04-27 18:07 34.64724 135.30108 8832 ft 276 kts 284°
2026-04-27 18:07 34.65578 135.28015 9634 ft 280 kts 305°
2026-04-27 18:08 34.66516 135.25958 10403 ft 282 kts 284°
2026-04-27 18:08 34.66942 135.23558 10866 ft 296 kts 280°
2026-04-27 18:08 34.67370 135.21083 11585 ft 301 kts 281°
2026-04-27 18:08 34.67822 135.18608 12505 ft 298 kts 281°
2026-04-27 18:09 34.68274 135.16185 13425 ft 298 kts 281°
2026-04-27 18:09 34.68743 135.13718 14240 ft 301 kts 281°
2026-04-27 18:09 34.69220 135.11227 15087 ft 303 kts 281°
2026-04-27 18:09 34.69698 135.08722 15876 ft 306 kts 281°
2026-04-27 18:10 34.70179 135.06196 16681 ft 308 kts 281°
2026-04-27 18:10 34.70520 135.03626 17468 ft 308 kts 272°
2026-04-27 18:10 34.70518 135.01008 18241 ft 310 kts 265°
2026-04-27 18:10 34.70193 134.98418 18982 ft 312 kts 259°
2026-04-27 18:11 34.69713 134.95838 19694 ft 314 kts 258°
2026-04-27 18:11 34.69215 134.93270 20371 ft 317 kts 258°
2026-04-27 18:11 34.68706 134.90661 21065 ft 318 kts 258°
2026-04-27 18:11 34.68195 134.88032 21744 ft 320 kts 258°
2026-04-27 18:12 34.67684 134.85386 22369 ft 322 kts 258°
2026-04-27 18:12 34.67175 134.82727 22986 ft 323 kts 258°
2026-04-27 18:12 34.66671 134.80103 23632 ft 318 kts 258°
2026-04-27 18:12 34.66173 134.77510 23936 ft 313 kts 258°
2026-04-27 18:13 34.65674 134.74901 23945 ft 319 kts 258°
2026-04-27 18:13 34.65175 134.72286 23949 ft 317 kts 258°
2026-04-27 18:13 34.64676 134.69675 23963 ft 316 kts 258°
2026-04-27 18:13 34.64179 134.67078 23960 ft 315 kts 258°
2026-04-27 18:14 34.63681 134.64484 23953 ft 315 kts 258°
2026-04-27 18:14 34.63181 134.61888 23960 ft 315 kts 258°
2026-04-27 18:14 34.62681 134.59291 23951 ft 316 kts 258°
2026-04-27 18:14 34.62180 134.56690 23950 ft 316 kts 258°
2026-04-27 18:15 34.61679 134.54092 23950 ft 317 kts 258°
2026-04-27 18:15 34.61182 134.51510 23955 ft 317 kts 258°
2026-04-27 18:15 34.60677 134.48900 23960 ft 318 kts 258°
2026-04-27 18:15 34.60172 134.46289 23958 ft 318 kts 258°
2026-04-27 18:16 34.59666 134.43672 23946 ft 318 kts 258°
2026-04-27 18:16 34.59162 134.41058 23956 ft 318 kts 258°
2026-04-27 18:16 34.58657 134.38444 23955 ft 318 kts 258°
2026-04-27 18:16 34.58153 134.35830 23956 ft 318 kts 258°
2026-04-27 18:17 34.57648 134.33210 23949 ft 318 kts 258°
2026-04-27 18:17 34.57144 134.30595 23945 ft 319 kts 258°
2026-04-27 18:17 34.56636 134.27974 23951 ft 319 kts 258°
2026-04-27 18:17 34.56128 134.25350 23939 ft 319 kts 258°
2026-04-27 18:18 34.55620 134.22734 23938 ft 319 kts 258°
2026-04-27 18:18 34.55112 134.20112 23944 ft 319 kts 258°
2026-04-27 18:18 34.54602 134.17494 23941 ft 319 kts 258°
2026-04-27 18:18 34.54096 134.14871 23949 ft 319 kts 259°
2026-04-27 18:19 34.53752 134.12248 23947 ft 318 kts 263°
2026-04-27 18:19 34.53516 134.09583 23942 ft 318 kts 264°
2026-04-27 18:19 34.53298 134.06912 23941 ft 317 kts 264°
2026-04-27 18:19 34.53077 134.04238 23939 ft 317 kts 264°
2026-04-27 18:20 34.52854 134.01569 23939 ft 318 kts 264°
2026-04-27 18:20 34.52626 133.98937 23936 ft 318 kts 264°
2026-04-27 18:20 34.52392 133.96267 23935 ft 318 kts 264°
2026-04-27 18:20 34.52155 133.93596 23936 ft 318 kts 264°
2026-04-27 18:21 34.51917 133.90929 23937 ft 318 kts 264°
2026-04-27 18:21 34.51681 133.88286 23935 ft 318 kts 264°
2026-04-27 18:21 34.51441 133.85616 23937 ft 317 kts 264°
2026-04-27 18:21 34.51203 133.82958 23932 ft 317 kts 264°
2026-04-27 18:22 34.50964 133.80306 23929 ft 316 kts 264°
2026-04-27 18:22 34.50723 133.77648 23923 ft 314 kts 264°
2026-04-27 18:22 34.50491 133.75020 23925 ft 310 kts 264°
2026-04-27 18:22 34.50264 133.72454 23870 ft 303 kts 264°
2026-04-27 18:23 34.50040 133.69928 23643 ft 297 kts 264°
2026-04-27 18:23 34.49821 133.67475 23293 ft 296 kts 264°
2026-04-27 18:23 34.49602 133.65011 22947 ft 292 kts 264°
2026-04-27 18:23 34.49384 133.62568 22579 ft 290 kts 264°
2026-04-27 18:24 34.49167 133.60146 22208 ft 288 kts 264°
2026-04-27 18:24 34.48951 133.57742 21848 ft 286 kts 264°
2026-04-27 18:24 34.48737 133.55348 21460 ft 285 kts 264°
2026-04-27 18:24 34.48522 133.52965 21108 ft 283 kts 264°
2026-04-27 18:25 34.48308 133.50597 20739 ft 282 kts 264°
2026-04-27 18:25 34.48095 133.48237 20374 ft 281 kts 264°
2026-04-27 18:25 34.47882 133.45886 20014 ft 279 kts 264°
2026-04-27 18:25 34.47666 133.43580 19656 ft 278 kts 264°
2026-04-27 18:26 34.47450 133.41253 19300 ft 276 kts 264°
2026-04-27 18:26 34.47209 133.38947 18942 ft 274 kts 259°
2026-04-27 18:26 34.46698 133.36692 18314 ft 283 kts 251°
2026-04-27 18:26 34.45985 133.34467 17886 ft 285 kts 251°
2026-04-27 18:27 34.45266 133.32234 17517 ft 283 kts 251°
2026-04-27 18:27 34.44563 133.30041 17179 ft 282 kts 251°
2026-04-27 18:27 34.43860 133.27822 16828 ft 280 kts 251°
2026-04-27 18:27 34.43163 133.25616 16469 ft 279 kts 251°
2026-04-27 18:28 34.42471 133.23421 16130 ft 277 kts 251°
2026-04-27 18:28 34.41792 133.21272 15795 ft 276 kts 251°
2026-04-27 18:28 34.41106 133.19106 15466 ft 274 kts 251°
2026-04-27 18:28 34.40422 133.16953 15089 ft 273 kts 251°
2026-04-27 18:29 34.39733 133.14793 14636 ft 276 kts 251°
2026-04-27 18:29 34.39042 133.12623 14169 ft 276 kts 251°
2026-04-27 18:29 34.38359 133.10464 13713 ft 279 kts 251°
2026-04-27 18:29 34.37662 133.08273 13346 ft 277 kts 251°
2026-04-27 18:30 34.36967 133.06091 12988 ft 277 kts 251°
2026-04-27 18:30 34.36272 133.03922 12669 ft 276 kts 251°
2026-04-27 18:30 34.35580 133.01760 12316 ft 275 kts 251°
2026-04-27 18:30 34.34896 132.99622 11915 ft 276 kts 251°
2026-04-27 18:31 34.34204 132.97452 11570 ft 274 kts 251°
2026-04-27 18:31 34.33517 132.95301 11194 ft 274 kts 251°
2026-04-27 18:31 34.32839 132.93131 10791 ft 275 kts 251°
2026-04-27 18:31 34.32116 132.91022 10472 ft 275 kts 241°
2026-04-27 18:32 34.30937 132.89213 10188 ft 273 kts 232°
2026-04-27 18:32 34.29694 132.87476 9817 ft 273 kts 231°
2026-04-27 18:32 34.28453 132.85732 9451 ft 273 kts 231°
2026-04-27 18:32 34.27221 132.83981 9084 ft 274 kts 231°
2026-04-27 18:33 34.25997 132.82219 8741 ft 273 kts 231°
2026-04-27 18:33 34.24785 132.80460 8419 ft 272 kts 231°
2026-04-27 18:33 34.23580 132.78698 8107 ft 270 kts 232°
2026-04-27 18:33 34.22403 132.76971 7813 ft 269 kts 232°
2026-04-27 18:34 34.21218 132.75230 7491 ft 268 kts 232°
2026-04-27 18:34 34.20038 132.73491 7176 ft 266 kts 232°
2026-04-27 18:34 34.18866 132.71757 6852 ft 266 kts 231°
2026-04-27 18:34 34.17696 132.70027 6578 ft 264 kts 232°
2026-04-27 18:35 34.16540 132.68314 6270 ft 262 kts 231°
2026-04-27 18:35 34.15389 132.66600 5926 ft 262 kts 232°
2026-04-27 18:35 34.14243 132.64887 5632 ft 261 kts 232°
2026-04-27 18:35 34.13122 132.63209 5329 ft 260 kts 232°
2026-04-27 18:36 34.11922 132.61576 4988 ft 257 kts 224°
2026-04-27 18:36 34.10596 132.60127 4503 ft 259 kts 222°
2026-04-27 18:36 34.09244 132.58691 4084 ft 256 kts 222°
2026-04-27 18:36 34.07906 132.57273 3586 ft 255 kts 222°
2026-04-27 18:37 34.06571 132.55859 3162 ft 253 kts 221°
2026-04-27 18:37 34.05295 132.54503 3056 ft 234 kts 222°
2026-04-27 18:37 34.04138 132.53274 3017 ft 216 kts 222°
2026-04-27 18:37 34.03025 132.52094 2967 ft 212 kts 221°
2026-04-27 18:38 34.01927 132.50923 2695 ft 209 kts 221°
2026-04-27 18:38 34.00817 132.49827 2607 ft 204 kts 209°
2026-04-27 18:38 33.99430 132.49498 2622 ft 210 kts 176°
2026-04-27 18:38 33.97959 132.49733 2616 ft 216 kts 171°
2026-04-27 18:39 33.96592 132.50454 2590 ft 218 kts 137°
2026-04-27 18:39 33.95652 132.51887 2613 ft 217 kts 130°
2026-04-27 18:39 33.94700 132.53243 2587 ft 204 kts 133°
2026-04-27 18:39 33.93811 132.54470 2595 ft 190 kts 133°
2026-04-27 18:40 33.92951 132.55665 2605 ft 188 kts 133°
2026-04-27 18:40 33.92094 132.56860 2551 ft 189 kts 133°
2026-04-27 18:40 33.91227 132.58070 2337 ft 191 kts 133°
2026-04-27 18:40 33.90386 132.59248 2088 ft 181 kts 131°
2026-04-27 18:41 33.89592 132.60359 1861 ft 167 kts 131°
2026-04-27 18:41 33.88870 132.61366 1647 ft 152 kts 131°
2026-04-27 18:41 33.88194 132.62310 1457 ft 147 kts 131°
2026-04-27 18:41 33.87525 132.63247 1265 ft 148 kts 130°
2026-04-27 18:42 33.86852 132.64189 1073 ft 149 kts 130°
2026-04-27 18:42 33.86403 132.64817 937 ft 150 kts 130°
2026-04-27 18:42 33.85498 132.66092 656 ft 152 kts 129°
2026-04-27 18:42 33.84814 132.67042 461 ft 149 kts 130°
2026-04-27 18:43 33.84136 132.67981 275 ft 148 kts 130°
2026-04-27 18:43 33.83471 132.68922 85 ft 148 kts 129°
2026-04-27 18:43 33.82841 132.69800 23 ft 118 kts 131°
2026-04-27 18:43 33.82448 132.70351 24 ft 56 kts 130°
2026-04-27 18:44 33.82310 132.70565 27 ft 20 kts 97°
2026-04-27 18:44 33.82399 132.70675 26 ft 19 kts
2026-04-27 18:44 33.82500 132.70584 24 ft 19 kts 311°
2026-04-27 18:44 33.82584 132.70467 27 ft 18 kts 310°
2026-04-27 18:45 33.82662 132.70357 24 ft 17 kts 310°
2026-04-27 18:45 33.82724 132.70334 28 ft 9 kts 47°
2026-04-27 18:45 33.82773 132.70384 24 ft 9 kts 41°
2026-04-27 18:45 33.82798 132.70410 24 ft 0 kts 41°